CZ-4C DEB, 44617

Orbit data source: Space-Track

CZ-4C DEB, 44617 is space debris in LEO originally from a launch on Tue, 10 Apr 2018 UTC launched from the Taiyaun Space Center, China (TSC). Debris objects in space refer to the collection of defunct objects orbiting the Earth. Examples of debris include non-operational satellites, rocket bodies, and fragments generated from explosions, collisions, or faulty payload assembly.

Loading next visibility...
Identifier
44617, 2018-034J
Orbit
LEO
Country
Flag of CNCN / PRC
Related business
Manufacturer
Unknown
Mission
Spacecraft
Bus & Motor
Unknown
Mass
Unknown
Launch date (UTC)
2018-04-10 (7 years ago)
Launch vehicle
Unknown
Launch site
Taiyaun Space Center, China (TSC)
Object type
Payload
Rocket body
Debris
Shape & HBR
Unknown
Radar Cross Section
Small (<0.1 m²)

Expand to show TLE details & history
Last TLE update: 2 days ago

TLE from 2 days ago
0 CZ-4C DEB
1 44617U 18034J   25259.90533760 -.00000063  00000-0  41340-4 0  9990
2 44617  63.3977 127.7704 0228133   6.7501 353.6507 13.40992365357595
Epoch: 2025-09-16T21:43Z
TLE epoch observation values (Epoch: 2025-09-16T21:43:41.168Z)
Latitude
-0.00001°
Longitude
165.75993°
Altitude
937.699 km
Speed
7.467 km/s
True Right ascension
08h 31m 04s
True Declination
0° 00' 00"
Sunlit
Object was in daylight at epoch
Visualization orbit readout
Latitude
Unknown
Longitude
Unknown
Altitude
Unknown
Speed
Unknown
Apparent Right ascension
Unknown
Apparent Declination
Unknown
Sunlit
N/A
Visualization observer readout
Local Sidereal Time
04:32:40
Azimuth
Unknown
Elevation
Unknown
Doppler factor
Unknown
Orbital elements
Apogee altitude
1,275.118 km
Perigee altitude
933.715 km
Semi-major axis
7,482.553 km
Eccentricity
0.02281
Inclination
63.3977°
RAAN
127.7704°
Arg. of periapsis
6.7501°
True anomaly
353.35317°
Mean anomaly
353.6507°
Eccentric anomaly
353.50279°
Mean motion
3.35327 °/min
Orbital period
107.36 mins
BSTAR
0.00004134
Loading maneuver chart data...
Computing Atmospheric mass density...
Loading historical data...
Loading historical data...
Loading historical data...
Loading historical data...
Loading historical data...
Loading historical data...
Loading historical data...

Documentation

Showing up to 5 results
|